EW9519 Kungalv SE current weather conditions

sailwx.info

Wind from 248 at 6 knots gusting 13

Air temperature 6.7° C
Dewpoint 3.8° C

Last reported at 2019-Dec-05 16:09 UTC.
Time now 2019-Dec-05 16:52 UTC

Location: N 57°50' E 011°52'.
View on Google Maps.

See reports from other nearby stations

  
Tides and Currents Weather Stations Pressure Air Temp Water Temp Dewpoint Dewpoint Depression Visibility Wind Speed Wind Dir Waves Ship Positions
date/time (UTC)wind fromknots sea level pressurealtimeterstation pressurevisibilityair tempwater tempwave heightnotes
2019-Dec-05 16:09 248 6 gusting 13 6.7
2019-Dec-05 16:04 248 6 gusting 13 6.7
2019-Dec-05 15:59 293 5 gusting 10 6.7
2019-Dec-05 15:54 338 10 gusting 10 6.7
2019-Dec-05 15:49 225 6 gusting 11 6.7
2019-Dec-05 15:44 225 6 gusting 11 6.7
2019-Dec-05 15:39 203 7 gusting 11 6.7
2019-Dec-05 15:34 225 5 gusting 8 6.7
2019-Dec-05 15:29 293 4 gusting 9 6.7
2019-Dec-05 15:24 248 4 gusting 10 6.7
2019-Dec-05 15:19 225 7 gusting 11 6.7
2019-Dec-05 15:14 203 5 gusting 9 6.7
2019-Dec-05 15:09 248 6 gusting 9 6.7
2019-Dec-05 15:04 248 6 gusting 10 6.7
2019-Dec-05 14:59 293 6 gusting 6 6.7
2019-Dec-05 14:54 225 5 gusting 9 6.7
2019-Dec-05 14:49 225 5 gusting 12 6.7
2019-Dec-05 14:44 225 6 gusting 13 6.7
2019-Dec-05 14:39 158 6 gusting 9 6.7
2019-Dec-05 14:34 203 6 gusting 12 6.7
2019-Dec-05 14:29 203 6 gusting 9 6.7
2019-Dec-05 14:24 225 4 gusting 8 6.7
2019-Dec-05 14:19 248 6 gusting 6 6.7
2019-Dec-05 14:14 203 8 gusting 13 6.7
2019-Dec-05 14:09 203 5 gusting 9 6.7
2019-Dec-05 14:04 248 5 gusting 9 6.7
2019-Dec-05 13:59 248 4 gusting 11 6.7
2019-Dec-05 13:54 203 5 gusting 12 6.7
2019-Dec-05 13:49 248 6 gusting 8 6.7
2019-Dec-05 13:44 225 5 gusting 9 6.7
2019-Dec-05 13:39 225 6 gusting 8 6.7
2019-Dec-05 13:34 203 4 gusting 10 6.1
2019-Dec-05 13:29 248 10 gusting 11 6.1
2019-Dec-05 13:24 203 4 gusting 8 6.7
2019-Dec-05 13:19 248 5 gusting 11 6.7
2019-Dec-05 13:14 293 6 gusting 7 6.7
2019-Dec-05 13:09 180 7 gusting 7 6.7
2019-Dec-05 13:04 203 6 gusting 11 6.7
2019-Dec-05 12:59 248 3 gusting 7 6.7
2019-Dec-05 12:54 315 10 gusting 11 6.7
2019-Dec-05 12:49 225 8 gusting 11 6.7
2019-Dec-05 12:44 248 6 gusting 11 6.7
2019-Dec-05 12:39 248 2 gusting 6 6.7
2019-Dec-05 12:34 225 3 gusting 10 6.7
2019-Dec-05 12:29 248 5 gusting 7 6.7
2019-Dec-05 12:24 248 6 gusting 11 6.7
2019-Dec-05 12:19 248 6 gusting 7 6.7
2019-Dec-05 12:14 225 5 gusting 7 6.7
2019-Dec-05 12:09 225 5 gusting 8 6.7
2019-Dec-05 12:04 158 1 gusting 6 6.7
2019-Dec-05 11:59 180 6 gusting 8 6.7
2019-Dec-05 11:54 248 4 gusting 10 6.7
2019-Dec-05 11:49 293 5 gusting 12 6.7
2019-Dec-05 11:44 180 5 gusting 10 7.2
2019-Dec-05 11:39 248 6 gusting 10 7.2
2019-Dec-05 11:34 248 5 gusting 7 7.2
2019-Dec-05 11:29 248 6 gusting 8 7.2
2019-Dec-05 11:24 203 6 gusting 11 7.2
2019-Dec-05 11:19 225 6 gusting 10 7.2
2019-Dec-05 11:14 248 2 gusting 10 7.2
2019-Dec-05 11:09 225 6 gusting 14 7.2
2019-Dec-05 11:04 293 6 gusting 6 7.2
2019-Dec-05 10:59 248 6 gusting 9 7.2
2019-Dec-05 10:54 293 6 gusting 6 7.2
2019-Dec-05 10:49 135 2 gusting 7 7.2
2019-Dec-05 10:44 203 7 gusting 8 7.2
2019-Dec-05 10:39 225 6 gusting 7 7.2
2019-Dec-05 10:34 248 6 gusting 6 7.2
2019-Dec-05 10:29 248 5 gusting 12 7.2
2019-Dec-05 10:24 225 5 gusting 6 7.2
2019-Dec-05 10:19 225 8 gusting 14 7.2
2019-Dec-05 10:14 293 8 gusting 11 7.2
2019-Dec-05 10:09 293 4 gusting 11 7.2
2019-Dec-05 10:04 203 3 gusting 10 7.2
2019-Dec-05 09:59 225 7 gusting 11 7.2
2019-Dec-05 09:54 203 7 gusting 12 7.2
2019-Dec-05 09:49 135 4 gusting 5 7.2
2019-Dec-05 09:44 248 8 gusting 11 7.2
2019-Dec-05 09:39 248 6 gusting 11 7.2
2019-Dec-05 09:34 158 6 gusting 9 7.2
2019-Dec-05 09:29 225 5 gusting 11 7.2
2019-Dec-05 09:24 248 3 gusting 11 7.2
2019-Dec-05 09:19 180 5 gusting 8 6.7
2019-Dec-05 09:14 180 6 gusting 10 6.7
2019-Dec-05 09:09 203 9 gusting 12 6.7
2019-Dec-05 09:04 203 5 gusting 7 6.7
2019-Dec-05 08:59 248 6 gusting 9 6.7
2019-Dec-05 08:54 248 3 gusting 9 6.7
2019-Dec-05 08:49 248 7 gusting 11 6.7
2019-Dec-05 08:44 158 5 gusting 6 6.7
2019-Dec-05 08:39 338 0 gusting 6 6.7
2019-Dec-05 08:34 135 3 gusting 9 6.7
2019-Dec-05 08:29 203 5 gusting 6 6.7
2019-Dec-05 08:24 248 5 gusting 7 6.7
2019-Dec-05 08:19 248 5 gusting 8 6.7
2019-Dec-05 08:14 225 5 gusting 11 6.7
2019-Dec-05 08:09 225 5 gusting 8 6.7
2019-Dec-05 08:04 248 4 gusting 9 6.7
2019-Dec-05 07:59 158 6 gusting 7 6.7
2019-Dec-05 07:54 135 5 gusting 6 6.7
2019-Dec-05 07:49 225 3 gusting 7 6.7
2019-Dec-05 07:44 225 6 gusting 9 6.7
2019-Dec-05 07:39 180 4 gusting 6 6.7
2019-Dec-05 07:34 225 6 gusting 8 6.7
2019-Dec-05 07:29 225 6 gusting 6 6.7
2019-Dec-05 07:24 225 6 gusting 10 6.7
2019-Dec-05 07:19 270 5 gusting 7 6.7
2019-Dec-05 07:14 248 5 gusting 12 6.7
2019-Dec-05 07:09 248 5 gusting 7 6.7
2019-Dec-05 07:04 248 5 gusting 11 6.7
2019-Dec-05 06:59 225 5 gusting 6 6.7
2019-Dec-05 06:54 248 5 gusting 9 6.7
2019-Dec-05 06:49 203 4 gusting 7 6.7
2019-Dec-05 06:44 248 3 gusting 5 6.7
2019-Dec-05 06:39 180 5 gusting 6 6.7
2019-Dec-05 06:34 203 4 gusting 9 6.7
2019-Dec-05 06:29 225 6 gusting 7 6.7
2019-Dec-05 06:24 225 4 gusting 11 6.7
2019-Dec-05 06:19 203 6 gusting 9 6.7
2019-Dec-05 06:14 248 3 gusting 8 6.7
2019-Dec-05 06:09 248 3 gusting 12 6.7
2019-Dec-05 06:04 203 3 gusting 6 6.7
2019-Dec-05 05:59 248 4 gusting 10 6.7
2019-Dec-05 05:54 158 4 gusting 6 6.7
2019-Dec-05 05:49 225 4 gusting 12 6.7
2019-Dec-05 05:44 248 4 gusting 6 6.7
2019-Dec-05 05:39 203 5 gusting 8 6.7
2019-Dec-05 05:34 135 6 gusting 7 6.7
2019-Dec-05 05:29 225 5 gusting 7 6.7
2019-Dec-05 05:24 270 3 gusting 8 6.7
2019-Dec-05 05:19 248 5 gusting 7 6.7
2019-Dec-05 05:14 203 6 gusting 11 6.7
2019-Dec-05 05:09 248 4 gusting 9 6.7
2019-Dec-05 05:04 225 6 gusting 13 6.7
2019-Dec-05 04:59 203 5 gusting 7 6.7
2019-Dec-05 04:54 158 5 gusting 10 6.7
2019-Dec-05 04:49 225 6 gusting 8 6.7
2019-Dec-05 04:44 225 3 gusting 13 6.1
2019-Dec-05 04:39 293 6 gusting 7 6.1
2019-Dec-05 04:34 113 3 gusting 6 6.1
2019-Dec-05 04:29 203 6 gusting 6 6.1
2019-Dec-05 04:24 180 5 gusting 6 6.1
2019-Dec-05 04:19 203 6 gusting 6 6.1
2019-Dec-05 04:14 158 3 gusting 7 6.1
2019-Dec-05 04:09 203 7 gusting 14 6.1
2019-Dec-05 04:04 270 6 gusting 9 6.1
2019-Dec-05 03:59 248 4 gusting 5 6.1
2019-Dec-05 03:54 225 5 gusting 11 6.1
2019-Dec-05 03:49 248 4 gusting 7 6.1
2019-Dec-05 03:44 293 5 gusting 10 6.1
2019-Dec-05 03:39 248 4 gusting 9 6.1
2019-Dec-05 03:34 180 6 gusting 7 6.1
2019-Dec-05 03:29 248 2 gusting 8 6.1
2019-Dec-05 03:24 293 3 gusting 10 6.1
2019-Dec-05 03:19 248 2 gusting 7 6.1
2019-Dec-05 03:14 225 5 gusting 7 6.1
2019-Dec-05 03:09 248 4 gusting 8 6.1
2019-Dec-05 03:04 293 4 gusting 6 6.1
2019-Dec-05 02:59 135 4 gusting 7 6.1
2019-Dec-05 02:54 203 4 gusting 7 6.1
2019-Dec-05 02:49 203 4 gusting 13 6.1
2019-Dec-05 02:44 225 5 gusting 6 6.1
2019-Dec-05 02:39 225 5 gusting 11 6.1
2019-Dec-05 02:34 203 6 gusting 8 6.1
2019-Dec-05 02:29 293 1 gusting 7 6.1
2019-Dec-05 02:24 248 2 gusting 7 6.1
2019-Dec-05 02:19 180 7 gusting 11 6.1
2019-Dec-05 02:14 248 6 gusting 10 6.1
2019-Dec-05 02:09 158 6 gusting 9 6.1
2019-Dec-05 01:59 248 4 gusting 6 6.1
2019-Dec-05 01:54 203 6 gusting 7 6.1
2019-Dec-05 01:49 248 1 gusting 6 6.1
2019-Dec-05 01:44 203 3 gusting 6 6.1
2019-Dec-05 01:39 225 5 gusting 7 6.1
2019-Dec-05 01:34 180 5 gusting 8 6.1
2019-Dec-05 01:29 248 4 gusting 6 6.1
2019-Dec-05 01:24 225 4 gusting 5 6.1
2019-Dec-05 01:19 248 5 gusting 12 6.1
2019-Dec-05 01:14 203 2 gusting 5 6.1
2019-Dec-05 01:09 180 3 gusting 9 6.1
2019-Dec-05 01:04 270 4 gusting 5 6.1
2019-Dec-05 00:59 225 3 gusting 5 6.1
2019-Dec-05 00:54 248 4 gusting 6 6.1
2019-Dec-05 00:49 248 6 gusting 8 6.1
2019-Dec-05 00:44 203 5 gusting 7 6.1
2019-Dec-05 00:39 248 6 gusting 6 6.1
2019-Dec-05 00:34 180 3 gusting 6 6.1
2019-Dec-05 00:29 225 4 gusting 4 6.1
2019-Dec-05 00:24 248 5 gusting 5 6.1
2019-Dec-05 00:19 203 3 gusting 6 6.1
2019-Dec-05 00:14 203 4 gusting 5 6.1
2019-Dec-05 00:09 180 4 gusting 9 6.1
2019-Dec-05 00:04 225 4 gusting 8 6.1
2019-Dec-04 23:59 248 3 gusting 5 6.1
2019-Dec-04 23:54 203 6 gusting 9 6.1
2019-Dec-04 23:49 248 3 gusting 6 6.1
2019-Dec-04 23:44 248 4 gusting 7 6.1
2019-Dec-04 23:39 203 6 gusting 6 6.1
2019-Dec-04 23:34 225 5 gusting 8 6.1
2019-Dec-04 23:29 293 1 gusting 8 6.1
2019-Dec-04 23:24 225 5 gusting 7 6.1
2019-Dec-04 23:19 203 5 gusting 10 6.1
2019-Dec-04 23:14 248 4 gusting 6 6.1
2019-Dec-04 23:09 248 4 gusting 6 6.1
2019-Dec-04 23:04 225 4 gusting 6 6.1
2019-Dec-04 22:59 225 2 gusting 5 6.1
2019-Dec-04 22:54 023 6 gusting 8 6.1
2019-Dec-04 22:49 203 3 gusting 5 6.1
2019-Dec-04 22:44 248 5 gusting 6 6.7
2019-Dec-04 22:39 225 1 gusting 7 6.7
2019-Dec-04 22:34 248 2 gusting 3 6.7
2019-Dec-04 22:29 225 0 gusting 6 6.7
2019-Dec-04 22:24 248 2 gusting 4 6.7
2019-Dec-04 22:19 203 1 gusting 3 6.7
2019-Dec-04 22:14 113 4 gusting 5 6.7
2019-Dec-04 22:09 248 2 gusting 9 6.7
2019-Dec-04 22:04 248 3 gusting 6 6.1
2019-Dec-04 21:59 158 1 gusting 6 6.1
2019-Dec-04 21:54 225 5 gusting 6 6.1
2019-Dec-04 21:49 248 6 gusting 8 6.1
2019-Dec-04 21:44 225 4 gusting 5 6.1
2019-Dec-04 21:39 203 4 gusting 10 6.1
2019-Dec-04 21:34 203 4 gusting 7 6.1
2019-Dec-04 21:29 203 6 gusting 6 6.1
2019-Dec-04 21:24 248 5 gusting 5 6.1
2019-Dec-04 21:19 225 5 gusting 5 6.1
2019-Dec-04 21:14 113 2 gusting 6 6.1
2019-Dec-04 21:09 158 2 gusting 6 6.7
2019-Dec-04 21:04 158 3 gusting 7 6.7
2019-Dec-04 20:59 293 1 gusting 5 6.7
2019-Dec-04 20:54 158 3 gusting 9 6.7
2019-Dec-04 20:49 293 3 gusting 7 6.7
2019-Dec-04 20:44 158 6 gusting 6 6.7
2019-Dec-04 20:39 248 6 gusting 7 6.7
2019-Dec-04 20:34 203 3 gusting 6 6.7
2019-Dec-04 20:29 180 2 gusting 2 6.7
2019-Dec-04 20:24 158 3 gusting 10 6.7
2019-Dec-04 20:19 338 0 gusting 3 6.7
2019-Dec-04 20:14 158 3 gusting 4 6.7
2019-Dec-04 20:09 203 4 gusting 4 6.7
2019-Dec-04 20:04 203 4 gusting 6 6.7
2019-Dec-04 19:59 248 3 gusting 6 6.7
2019-Dec-04 19:54 203 2 gusting 3 6.7
2019-Dec-04 19:49 248 4 gusting 6 6.7
2019-Dec-04 19:44 248 2 gusting 7 6.7
2019-Dec-04 19:39 158 4 gusting 11 6.7
2019-Dec-04 19:34 225 1 gusting 6 6.7
2019-Dec-04 19:29 248 6 gusting 6 6.7
2019-Dec-04 19:24 225 3 gusting 5 6.7
2019-Dec-04 19:19 203 6 gusting 6 6.7
2019-Dec-04 19:14 158 3 gusting 6 6.7
2019-Dec-04 19:09 158 3 gusting 5 6.1
2019-Dec-04 19:04 203 2 gusting 4 6.1
2019-Dec-04 18:59 203 2 gusting 5 6.1
2019-Dec-04 18:54 338 1 gusting 5 6.1
2019-Dec-04 18:49 158 0 gusting 3 6.1
2019-Dec-04 18:44 135 1 gusting 5 6.1
2019-Dec-04 18:39 135 1 gusting 2 6.7
2019-Dec-04 18:34 158 1 gusting 3 6.7
2019-Dec-04 18:29 203 0 gusting 4 6.7
2019-Dec-04 18:24 158 0 gusting 3 6.7
2019-Dec-04 18:19 338 6.7
2019-Dec-04 18:14 203 1 gusting 3 6.7
2019-Dec-04 18:09 158 0 gusting 2 6.7
2019-Dec-04 18:04 135 2 gusting 3 6.7
2019-Dec-04 17:59 225 0 gusting 4 6.7
2019-Dec-04 17:54 225 3 gusting 4 6.7
2019-Dec-04 17:49 158 1 gusting 3 6.7
2019-Dec-04 17:44 180 2 gusting 4 6.7
2019-Dec-04 17:39 203 2 gusting 4 6.7
2019-Dec-04 17:34 225 1 gusting 1 6.7
2019-Dec-04 17:29 203 1 gusting 4 6.7
2019-Dec-04 17:24 203 1 gusting 4 6.7
2019-Dec-04 17:19 158 6.7
2019-Dec-04 17:14 270 1 gusting 3 6.7
2019-Dec-04 17:09 203 3 gusting 3 6.7
2019-Dec-04 17:04 203 3 gusting 3 6.7
2019-Dec-04 16:59 225 1 gusting 4 6.7
2019-Dec-04 16:54 248 1 gusting 2 6.1
2019-Dec-04 16:49 225 1 gusting 2 6.1
2019-Dec-04 16:44 180 6.1
2019-Dec-04 16:39 203 1 gusting 3 6.1
2019-Dec-04 16:34 203 3 gusting 5 6.1
2019-Dec-04 16:29 203 1 gusting 3 6.1
2019-Dec-04 16:24 248 1 gusting 2 6.1
2019-Dec-04 16:19 203 1 gusting 3 6.1
2019-Dec-04 16:14 203 2 gusting 5 6.1
2019-Dec-04 16:09 180 0 gusting 2 6.1
2019-Dec-04 16:04 158 1 gusting 2 6.1
2019-Dec-04 15:59 203 2 gusting 5 6.1
2019-Dec-04 15:54 203 1 gusting 2 6.1
2019-Dec-04 15:49 180 3 gusting 3 6.1
2019-Dec-04 15:44 203 1 gusting 2 6.1
2019-Dec-04 15:39 158 2 gusting 4 6.1
2019-Dec-04 15:34 180 0 gusting 2 6.1
2019-Dec-04 15:29 158 1 gusting 6 6.1
2019-Dec-04 15:24 158 3 gusting 6 6.1
2019-Dec-04 15:19 180 2 gusting 5 6.1
2019-Dec-04 15:14 248 1 gusting 3 6.1
2019-Dec-04 15:09 248 2 gusting 5 6.1
2019-Dec-04 15:04 135 1 gusting 4 6.1
2019-Dec-04 14:59 203 1 gusting 3 6.7
2019-Dec-04 14:54 203 1 gusting 4 6.7
2019-Dec-04 14:49 225 2 gusting 5 6.7
2019-Dec-04 14:44 225 1 gusting 3 6.7
2019-Dec-04 14:39 248 2 gusting 3 6.7
2019-Dec-04 14:34 225 2 gusting 5 6.7
2019-Dec-04 14:29 225 3 gusting 4 6.7
2019-Dec-04 14:24 248 3 gusting 3 6.7
2019-Dec-04 14:19 248 5 gusting 5 6.7
2019-Dec-04 14:14 270 4 gusting 6 6.7
2019-Dec-04 14:09 203 4 gusting 5 6.7
2019-Dec-04 14:04 248 3 gusting 4 6.7
2019-Dec-04 13:59 203 1 gusting 5 6.7
2019-Dec-04 13:54 248 2 gusting 4 6.7
2019-Dec-04 13:49 180 2 gusting 4 6.7
2019-Dec-04 13:44 225 0 gusting 4 6.7
2019-Dec-04 13:39 203 2 gusting 2 6.7
2019-Dec-04 13:34 248 2 gusting 5 6.7
2019-Dec-04 13:29 270 0 gusting 6 6.7
2019-Dec-04 13:24 225 3 gusting 4 6.7
2019-Dec-04 13:19 180 3 gusting 5 6.7
2019-Dec-04 13:14 248 3 gusting 3 6.7
2019-Dec-04 13:09 225 3 gusting 3 6.7
2019-Dec-04 13:04 225 2 gusting 6 6.7
2019-Dec-04 12:59 203 3 gusting 3 6.7
2019-Dec-04 12:54 248 1 gusting 3 6.7
2019-Dec-04 12:49 225 2 gusting 3 6.7
2019-Dec-04 12:44 203 2 gusting 6 6.7
2019-Dec-04 12:39 203 4 gusting 5 6.7
2019-Dec-04 12:34 248 1 gusting 5 6.7
2019-Dec-04 12:29 248 4 gusting 5 6.7
2019-Dec-04 12:24 203 1 gusting 5 6.7
2019-Dec-04 12:19 203 1 gusting 4 6.7
2019-Dec-04 12:14 225 1 gusting 6 6.7
2019-Dec-04 12:09 203 3 gusting 4 6.7
2019-Dec-04 12:04 203 1 gusting 6 6.7
2019-Dec-04 11:59 225 3 gusting 4 6.7
2019-Dec-04 11:54 203 5 gusting 6 6.7
2019-Dec-04 11:49 248 1 gusting 9 6.7
2019-Dec-04 11:44 225 2 gusting 6 6.7
2019-Dec-04 11:39 203 3 gusting 4 6.7
2019-Dec-04 11:34 158 3 gusting 4 6.7
2019-Dec-04 11:29 225 4 gusting 4 6.7
2019-Dec-04 11:24 203 1 gusting 4 6.7
2019-Dec-04 11:19 225 2 gusting 5 6.7
2019-Dec-04 11:14 203 3 gusting 4 6.7
2019-Dec-04 11:09 225 2 gusting 6 6.7
2019-Dec-04 11:04 248 6 gusting 6 6.7
2019-Dec-04 10:59 293 3 gusting 5 6.7
2019-Dec-04 10:54 248 3 gusting 5 6.7
2019-Dec-04 10:49 225 1 gusting 3 7.2
2019-Dec-04 10:44 270 7.2
2019-Dec-04 10:39 248 0 gusting 3 7.2
2019-Dec-04 10:34 203 7.2
2019-Dec-04 10:29 248 2 gusting 6 7.2
2019-Dec-04 10:24 248 3 gusting 7 7.2
2019-Dec-04 10:19 293 3 gusting 6 7.2
2019-Dec-04 10:14 248 3 gusting 4 7.2
2019-Dec-04 10:09 203 5 gusting 6 7.2
2019-Dec-04 10:04 270 7.2
2019-Dec-04 09:59 248 7.2
2019-Dec-04 09:54 203 3 gusting 8 7.2
2019-Dec-04 09:49 180 5 gusting 6 7.2
2019-Dec-04 09:44 225 1 gusting 5 7.2
2019-Dec-04 09:39 248 3 gusting 6 7.2
2019-Dec-04 09:34 248 1 gusting 4 7.2
2019-Dec-04 09:29 248 1 gusting 5 7.2
2019-Dec-04 09:24 248 4 gusting 4 7.2
2019-Dec-04 09:19 248 3 gusting 6 7.2
2019-Dec-04 09:14 203 2 gusting 6 7.2
2019-Dec-04 09:09 203 3 gusting 4 7.2
2019-Dec-04 09:04 158 3 gusting 9 7.2
2019-Dec-04 08:59 203 2 gusting 5 7.2
2019-Dec-04 08:54 225 3 gusting 5 6.7
2019-Dec-04 08:49 248 5 gusting 6 6.7
2019-Dec-04 08:44 248 2 gusting 8 6.7
2019-Dec-04 08:39 203 3 gusting 5 6.7
2019-Dec-04 08:34 248 3 gusting 4 6.7
2019-Dec-04 08:29 203 2 gusting 5 7.2
2019-Dec-04 08:24 203 2 gusting 4 6.7
2019-Dec-04 08:19 203 3 gusting 5 6.7
2019-Dec-04 08:14 248 4 gusting 7 6.7
2019-Dec-04 08:09 248 1 gusting 6 6.7
2019-Dec-04 08:04 225 1 gusting 7 6.7
2019-Dec-04 07:59 203 4 gusting 6 6.7
2019-Dec-04 07:54 203 2 gusting 4 6.7
2019-Dec-04 07:49 225 3 gusting 5 6.7
2019-Dec-04 07:44 225 2 gusting 5 6.7
2019-Dec-04 07:39 203 3 gusting 4 6.7
2019-Dec-04 07:34 068 6.7
2019-Dec-04 07:29 158 3 gusting 5 6.7
2019-Dec-04 07:24 248 3 gusting 5 6.7
2019-Dec-04 07:19 203 4 gusting 5 6.7
2019-Dec-04 07:14 180 2 gusting 3 6.7
2019-Dec-04 07:09 203 2 gusting 4 6.7
2019-Dec-04 07:04 158 5 gusting 7 6.7
2019-Dec-04 06:59 203 2 gusting 8 6.7
2019-Dec-04 06:54 225 1 gusting 6 6.7
2019-Dec-04 06:49 113 3 gusting 6 6.7
2019-Dec-04 06:44 203 2 gusting 6 6.7
2019-Dec-04 06:39 180 3 gusting 5 6.7
2019-Dec-04 06:34 248 3 gusting 5 6.7
2019-Dec-04 06:29 315 1 gusting 5 6.7
2019-Dec-04 06:24 248 5 gusting 8 6.7
2019-Dec-04 06:19 293 7.2
2019-Dec-04 06:14 203 4 gusting 5 6.7
2019-Dec-04 06:09 315 1 gusting 3 7.2
2019-Dec-04 06:04 225 3 gusting 5 6.7
2019-Dec-04 05:59 248 3 gusting 6 6.7
2019-Dec-04 05:54 225 3 gusting 5 6.7
2019-Dec-04 05:49 203 1 gusting 6 6.7
2019-Dec-04 05:44 158 2 gusting 5 6.7
2019-Dec-04 05:39 203 2 gusting 5 6.7
2019-Dec-04 05:34 248 3 gusting 5 6.7
2019-Dec-04 05:29 203 1 gusting 3 6.7
2019-Dec-04 05:24 248 3 gusting 4 6.7
2019-Dec-04 05:19 270 2 gusting 5 6.7
2019-Dec-04 05:14 203 2 gusting 5 6.7
2019-Dec-04 05:09 248 4 gusting 5 6.7
2019-Dec-04 05:04 248 3 gusting 6 6.7
2019-Dec-04 04:59 225 2 gusting 5 6.7
2019-Dec-04 04:54 225 3 gusting 6 6.7
2019-Dec-04 04:49 248 1 gusting 5 6.7
2019-Dec-04 04:44 203 4 gusting 5 6.7
2019-Dec-04 04:39 135 1 gusting 7 6.7
2019-Dec-04 04:34 270 4 gusting 5 6.7
2019-Dec-04 04:29 203 5 gusting 5 6.7
2019-Dec-04 04:24 293 5 gusting 8 6.7
2019-Dec-04 04:19 248 2 gusting 6 6.7
2019-Dec-04 04:14 203 3 gusting 5 6.7
2019-Dec-04 04:09 248 3 gusting 4 6.7
2019-Dec-04 04:04 203 2 gusting 3 6.7
2019-Dec-04 03:59 270 1 gusting 3 6.7
2019-Dec-04 03:54 203 2 gusting 3 6.7
2019-Dec-04 03:49 203 0 gusting 6 6.7
2019-Dec-04 03:44 293 5 gusting 6 6.7
2019-Dec-04 03:39 270 3 gusting 7 6.7
2019-Dec-04 03:34 293 3 gusting 6 6.7
2019-Dec-04 03:29 248 5 gusting 7 6.7
2019-Dec-04 03:24 225 5 gusting 7 6.7
2019-Dec-04 03:19 248 3 gusting 4 6.7
2019-Dec-04 03:14 203 4 gusting 8 6.7
2019-Dec-04 03:09 158 2 gusting 4 6.7
2019-Dec-04 03:04 293 3 gusting 6 6.7
2019-Dec-04 02:59 248 3 gusting 4 6.7
2019-Dec-04 02:54 203 1 gusting 2 6.7
2019-Dec-04 02:49 248 1 gusting 2 6.7
2019-Dec-04 02:44 225 1 gusting 4 6.7
2019-Dec-04 02:39 248 2 gusting 4 6.7
2019-Dec-04 02:34 180 2 gusting 2 6.7
2019-Dec-04 02:29 248 2 gusting 3 6.7
2019-Dec-04 02:24 225 3 gusting 6 6.1
2019-Dec-04 02:19 180 4 gusting 4 6.1
2019-Dec-04 02:14 203 1 gusting 2 6.1
2019-Dec-04 02:09 225 3 gusting 4 6.1
2019-Dec-04 01:59 248 1 gusting 5 6.1
2019-Dec-04 01:54 203 2 gusting 4 6.1
2019-Dec-04 01:49 203 1 gusting 2 6.1
2019-Dec-04 01:44 180 0 gusting 5 6.1
2019-Dec-04 01:39 248 1 gusting 4 6.1
2019-Dec-04 01:34 203 1 gusting 2 6.1
2019-Dec-04 01:29 248 1 gusting 3 6.1
2019-Dec-04 01:24 203 0 gusting 2 5.6
2019-Dec-04 01:19 203 1 gusting 2 5.6
2019-Dec-04 01:14 203 5.6
2019-Dec-04 01:09 225 1 gusting 2 6.1
2019-Dec-04 01:04 203 6.1
2019-Dec-04 00:59 248 0 gusting 0 6.1
2019-Dec-04 00:54 225 2 gusting 3 6.1
2019-Dec-04 00:49 203 2 gusting 4 6.1
2019-Dec-04 00:44 180 6.1
2019-Dec-04 00:39 270 0 gusting 3 6.7
2019-Dec-04 00:34 270 1 gusting 5 6.7
2019-Dec-04 00:29 203 3 gusting 6 6.7
2019-Dec-04 00:24 203 6.7
2019-Dec-04 00:19 203 1 gusting 4 6.7
2019-Dec-04 00:14 203 2 gusting 5 6.7
2019-Dec-04 00:09 270 0 gusting 2 6.7
2019-Dec-04 00:04 293 2 gusting 3 6.7
2019-Dec-03 23:59 203 0 gusting 3 6.7
2019-Dec-03 23:54 203 3 gusting 3 6.7
2019-Dec-03 23:49 203 6.7
2019-Dec-03 23:44 203 2 gusting 5 6.7
2019-Dec-03 23:39 203 1 gusting 2 6.7
2019-Dec-03 23:34 248 1 gusting 2 6.7
2019-Dec-03 23:29 338 1 gusting 5 6.7
2019-Dec-03 23:24 203 6.7
2019-Dec-03 23:19 158 0 gusting 5 6.7
2019-Dec-03 23:14 248 0 gusting 5 6.7
2019-Dec-03 23:09 315 1 gusting 2 6.7
2019-Dec-03 23:04 248 2 gusting 4 6.7
2019-Dec-03 22:59 203 2 gusting 4 6.7
2019-Dec-03 22:54 203 1 gusting 5 6.7
2019-Dec-03 22:49 225 3 gusting 5 6.7
2019-Dec-03 22:44 225 2 gusting 4 6.7
2019-Dec-03 22:39 203 3 gusting 4 6.7
2019-Dec-03 22:34 225 3 gusting 3 6.7
2019-Dec-03 22:29 248 0 gusting 7 6.7
2019-Dec-03 22:24 203 0 gusting 4 6.7
2019-Dec-03 22:19 293 2 gusting 3 6.7
2019-Dec-03 22:14 225 0 gusting 4 6.7
2019-Dec-03 22:09 293 0 gusting 4 6.7
2019-Dec-03 22:04 158 1 gusting 4 6.7
2019-Dec-03 21:59 315 4 gusting 5 6.7
2019-Dec-03 21:54 248 3 gusting 6 6.7
2019-Dec-03 21:49 338 6.7
2019-Dec-03 21:44 203 1 gusting 6 6.7
2019-Dec-03 21:39 203 6.7
2019-Dec-03 21:34 338 1 gusting 5 6.7
2019-Dec-03 21:29 248 3 gusting 4 6.7
2019-Dec-03 21:24 248 0 gusting 4 6.7
2019-Dec-03 21:19 293 0 gusting 6 6.7
2019-Dec-03 21:14 158 0 gusting 9 6.7
2019-Dec-03 21:09 203 3 gusting 5 6.7
2019-Dec-03 21:04 180 2 gusting 5 6.7
2019-Dec-03 20:59 023 3 gusting 3 6.7
2019-Dec-03 20:54 203 3 gusting 9 6.7
2019-Dec-03 20:49 293 6.7
2019-Dec-03 20:44 203 0 gusting 6 6.7
2019-Dec-03 20:39 338 2 gusting 6 6.7
2019-Dec-03 20:34 315 2 gusting 2 6.7
2019-Dec-03 20:29 158 0 gusting 5 6.7
2019-Dec-03 20:24 338 2 gusting 6 6.7
2019-Dec-03 20:19 248 1 gusting 6 6.7
2019-Dec-03 20:14 180 6 gusting 6 6.7
2019-Dec-03 20:09 338 3 gusting 4 6.7
2019-Dec-03 20:04 203 2 gusting 4 6.7
2019-Dec-03 19:59 158 3 gusting 6 6.7
2019-Dec-03 19:54 293 5 gusting 6 6.7
2019-Dec-03 19:49 203 6 gusting 10 6.7
2019-Dec-03 19:44 338 7.2
2019-Dec-03 19:39 270 3 gusting 6 7.2
2019-Dec-03 19:34 045 5 gusting 8 7.2
2019-Dec-03 19:29 203 1 gusting 6 7.2
2019-Dec-03 19:24 203 3 gusting 9 6.7
2019-Dec-03 19:19 068 2 gusting 9 6.7
2019-Dec-03 19:14 270 0 gusting 3 6.7
2019-Dec-03 19:09 248 1 gusting 5 6.7
2019-Dec-03 19:04 248 4 gusting 9 6.7
2019-Dec-03 18:59 248 3 gusting 6 6.7
2019-Dec-03 18:54 225 2 gusting 7 6.7
2019-Dec-03 18:49 248 2 gusting 9 6.7
2019-Dec-03 18:44 225 0 gusting 4 6.7
2019-Dec-03 18:39 248 6.7
2019-Dec-03 18:34 045 3 gusting 4 6.7
2019-Dec-03 18:29 293 3 gusting 6 6.7
2019-Dec-03 18:24 225 5 gusting 9 6.7
2019-Dec-03 18:19 023 0 gusting 6 6.7
2019-Dec-03 18:14 248 4 gusting 12 6.7
2019-Dec-03 18:09 338 6.7
2019-Dec-03 18:04 203 6 gusting 6 6.7
2019-Dec-03 17:59 225 0 gusting 6 6.7
2019-Dec-03 17:54 248 2 gusting 6 6.7
2019-Dec-03 17:49 225 3 gusting 6 6.7
2019-Dec-03 17:44 248 3 gusting 12 6.7
2019-Dec-03 17:39 090 2 gusting 6 6.7
2019-Dec-03 17:34 225 6 gusting 8 6.7
2019-Dec-03 17:29 225 5 gusting 11 6.7
2019-Dec-03 17:24 225 3 gusting 6 6.7
2019-Dec-03 17:19 225 4 gusting 13 6.7
2019-Dec-03 17:14 225 4 gusting 6 6.7
2019-Dec-03 17:09 248 2 gusting 6 6.7
2019-Dec-03 17:04 203 1 gusting 3 6.7
2019-Dec-03 16:59 270 3 gusting 6 6.7
2019-Dec-03 16:54 203 6 gusting 6 6.7
2019-Dec-03 16:49 315 2 gusting 6 6.7
2019-Dec-03 16:44 293 2 gusting 5 6.7
2019-Dec-03 16:39 248 6 gusting 10 6.7
2019-Dec-03 16:34 248 4 gusting 6 6.7
2019-Dec-03 16:29 023 5 gusting 6 6.7
2019-Dec-03 16:24 225 2 gusting 5 6.7
2019-Dec-03 16:19 225 6 gusting 9 6.7
2019-Dec-03 16:14 225 5 gusting 6 6.7
2019-Dec-03 16:09 248 3 gusting 5 6.7
2019-Dec-03 16:04 203 6 gusting 6 6.7